sat.trackr.live / text

‹ back to catalog

STARLINK-32271

NORAD 60368 · 2024-138P

PAYLOAD ACTIVE UNKNOWN

§ Identity

Operator
Country
US
Launch date
2024-08-04
Launch site
AFWTR
Launch vehicle
Mass (kg)
RCS (m²)

Purposes: comms

External: N2YO · Heavens-Above · Gunter

§ Orbital elements

Epoch: 2026-09-21T20:16:03.363168Z

Period
93.85 min
Inclination
53.1611°
Eccentricity
0.0001714
Mean motion
15.34373297 rev/d
Perigee alt
461.6 km
Apogee alt
464.0 km
Semi-major
6,840.9 km
B*
-4.2528e-5
RAAN
117.5025°
Arg perigee
80.3789°
Mean anomaly
279.7407°
Rev number
12,067

§ Raw data

STARLINK-322711 60368U 24138P   26264.84448337 -.00001812  00000+0 -42528-4 0  99902 60368  53.1611 117.5025 0001714  80.3789 279.7407 15.34373297120677

JSON: /api/v1/satellites/60368 · /tle

For live sub-satellite position, see the globe view (requires WebGL).

§ Visibility from observer

Set your observer location to see the next 7 days of passes ≥ 10°. The values pass through the URL so the page stays shareable.

No JS? Fill the form by hand. The geolocation button needs JavaScript.